Wind_Speed
62 59 56 54 44 42 42 44 46 41 37 36 39 41 43 42 35 38 33 38 41 44 46 46 45 46 36 38 34 32 40 40 34 33 29 27 27 25 22 21 18 17 16 15 15
63 62 60 61 51 45 46 46 47 42 43 41 41 43 43 43 44 43 41 40 41 42 45 45 45 44 42 39 37 33 40 40 37 32 32 28 28 29 26 26 19 20 19 18 16
68 66 64 64 57 51 51 52 49 44 43 43 44 44 46 47 45 47 46 46 45 42 47 45 46 45 41 41 36 38 39 39 38 32 33 32 30 31 31 26 19 19 20 20 20
70 68 65 65 63 56 57 51 51 50 49 48 48 46 47 50 48 48 50 46 46 44 46 44 45 47 40 37 41 40 40 40 38 34 35 31 30 31 33 29 24 20 24 20 21
68 67 66 66 64 63 59 55 55 53 50 52 48 49 52 56 50 48 50 50 46 49 46 43 46 47 37 35 39 42 43 42 39 35 37 33 31 31 33 33 31 26 23 25 20
68 66 73 68 68 69 65 58 55 58 56 55 55 52 53 58 52 50 52 48 47 48 48 46 51 45 42 37 37 42 41 39 38 37 39 34 28 33 33 33 33 31 25 26 25
72 70 73 70 76 76 73 62 57 59 59 56 57 63 55 55 53 51 47 50 48 46 49 52 52 40 44 42 35 40 41 35 38 38 42 35 29 29 34 37 34 34 33 31 29
79 76 59 74 76 78 68 66 64 63 59 54 53 57 56 57 56 50 48 48 46 48 48 44 48 44 43 40 38 39 42 38 38 40 37 38 30 31 32 38 37 37 37 36 33
90 83 89 61 63 70 65 57 59 55 60 57 55 57 60 57 57 53 50 46 45 45 44 49 36 41 41 42 32 40 40 39 38 38 42 38 40 35 34 35 39 38 39 37 39
99 88 95 84 86 71 57 49 47 56 59 57 60 54 53 50 56 49 48 47 45 46 46 35 41 42 40 40 32 36 40 40 41 39 43 41 42 42 37 36 40 42 39 41 39
92 92 89 89 86 86 76 74 72 72 69 60 59 44 50 53 52 51 44 44 43 47 45 41 44 41 41 41 37 39 42 40 38 39 42 41 44 43 44 39 38 42 41 41 44
91 87 93 92 93 87 79 71 77 73 65 57 47 50 56 60 50 41 41 43 45 43 45 42 38 40 39 34 38 45 43 38 41 42 46 50 48 46 45 40 41 41 44 43 43
89 87 85 85 86 90 86 80 75 72 64 59 60 65 64 53 46 42 44 48 44 43 47 51 42 37 38 47 49 46 41 40 44 48 49 53 55 50 43 40 43 41 42 44 46
82 85 85 83 83 81 81 77 73 71 69 66 60 58 59 52 44 43 45 45 44 46 48 42 43 46 51 53 49 46 45 47 50 53 54 55 57 53 42 38 41 41 39 43 42
81 83 81 76 74 78 75 75 70 68 63 62 63 56 49 48 49 52 49 49 48 48 47 45 47 50 45 46 47 51 49 50 52 56 58 57 58 51 43 40 42 44 46 47 44
80 77 74 70 67 66 62 61 56 56 59 58 55 50 49 50 50 47 49 49 50 43 41 44 47 48 47 46 48 47 52 52 54 56 58 55 55 56 52 50 48 46 49 53 53
78 75 74 74 70 65 58 52 51 52 53 53 53 50 51 50 50 50 48 47 44 39 41 46 46 44 43 48 50 54 58 56 59 63 58 51 51 55 55 55 54 54 52 51 53
79 76 72 73 69 64 59 53 51 54 53 54 55 50 49 49 49 48 49 45 44 45 44 46 48 46 48 51 53 57 57 59 63 56 51 54 54 55 54 51 50 47 48 51 53
80 77 73 69 66 66 59 54 55 52 54 54 52 51 51 50 49 46 46 46 46 46 45 44 48 49 51 53 56 58 56 62 57 51 48 48 49 44 45 46 46 48 47 46 49
76 75 73 68 65 61 58 57 55 55 53 52 51 51 52 48 45 46 44 47 45 44 44 45 48 50 53 56 55 55 63 54 47 39 39 40 43 41 40 41 43 42 40 40 43
74 71 71 67 63 59 59 61 58 55 52 52 52 51 51 48 44 45 40 43 44 41 42 43 45 52 54 56 59 62 51 44 39 34 38 41 44 46 46 49 48 48 48 48 49
76 74 69 66 62 60 61 62 57 56 51 51 48 50 49 43 44 37 37 42 41 41 42 45 49 53 57 58 60 54 45 35 38 43 41 44 45 48 49 50 49 46 46 48 50
81 77 72 66 62 62 65 62 57 54 52 48 46 45 46 42 40 38 42 43 43 46 50 48 49 53 54 59 51 45 38 38 40 44 43 46 49 44 43 45 45 46 45 46 46
83 77 73 65 65 65 66 63 58 56 53 53 52 46 43 43 43 41 45 43 43 46 48 50 53 50 58 57 44 43 40 38 41 45 45 45 47 41 45 46 47 46 48 50 51
74 74 72 67 66 65 63 61 60 57 60 58 53 49 43 44 44 46 46 46 46 50 47 48 54 56 63 53 41 43 41 41 42 42 43 42 38 41 45 50 54 53 51 51 52
76 75 74 69 65 62 60 61 63 62 63 61 55 51 46 49 45 48 47 45 50 52 53 53 59 57 58 46 41 46 44 45 46 44 41 44 49 50 51 54 56 55 52 55 57
69 72 74 71 69 61 60 64 66 63 62 58 56 52 50 52 51 49 46 47 51 55 57 58 56 57 53 43 45 47 48 47 48 46 48 49 51 54 56 55 57 58 60 61 64
Wind_Direction
239 242 243 250 247 251 258 258 261 269 275 281 288 296 301 306 303 304 302 299 315 315 322 332 331 334 330 342 339 338 333 348 346 347 346 353 344 345 340 334 321 317 312 303 296
237 242 248 249 248 253 258 267 266 270 273 276 284 293 297 298 299 300 304 305 311 312 319 328 328 332 322 332 330 330 330 337 341 341 343 343 345 336 336 331 334 311 305 304 291
235 240 249 247 251 252 264 265 267 270 271 275 282 289 292 294 292 295 301 303 311 313 318 324 326 323 316 320 327 323 324 327 333 335 334 340 341 337 332 333 327 316 304 298 296
239 241 247 247 248 256 263 265 267 270 272 276 282 284 288 289 290 293 299 297 305 308 314 319 319 316 316 318 324 324 319 323 326 330 329 329 332 339 328 331 319 312 305 302 286
237 242 249 246 249 258 261 260 268 265 269 274 280 282 282 285 289 292 296 296 300 306 305 313 316 311 312 314 317 321 316 315 318 322 326 326 323 335 325 324 321 315 305 302 297
236 244 251 248 253 258 259 255 262 263 268 273 276 279 278 281 287 288 291 289 295 303 301 306 312 306 300 312 311 318 310 308 315 317 320 319 320 322 322 318 318 315 307 297 292
231 240 247 246 257 259 258 256 258 261 268 271 272 275 271 282 281 283 288 290 291 298 300 303 305 299 298 308 303 309 307 311 314 313 315 316 323 322 315 311 312 308 305 296 290
229 233 241 244 255 257 259 262 262 263 262 265 270 270 269 276 278 278 289 285 290 293 296 297 300 294 297 305 302 310 304 306 310 311 309 313 323 324 317 306 304 303 302 298 291
237 237 239 240 246 249 257 258 256 259 257 260 269 266 269 273 275 277 282 285 288 290 293 297 292 296 294 300 302 303 295 306 305 304 310 316 311 318 307 300 295 293 296 296 292
240 243 243 252 252 247 248 257 260 261 259 259 265 267 267 267 269 275 284 282 287 287 293 291 288 287 292 294 299 291 302 304 305 304 310 312 306 310 309 297 291 288 285 287 288
240 243 246 248 253 255 257 261 268 276 273 274 270 270 273 279 281 288 279 277 279 282 284 279 287 288 290 299 292 289 298 297 290 306 312 311 312 310 304 302 292 288 287 283 283
241 244 246 247 250 257 259 264 267 270 271 270 267 267 274 286 283 279 272 270 274 280 281 280 286 284 287 286 294 304 298 292 299 307 311 311 313 311 307 294 290 286 285 285 284
242 244 246 249 250 252 257 262 267 268 266 266 269 275 278 281 277 271 266 267 272 273 274 280 279 285 283 294 299 299 292 295 305 307 307 312 314 308 300 291 291 287 286 284 280
240 243 245 249 252 254 258 261 265 265 267 269 272 270 276 275 265 263 265 264 266 268 273 279 277 283 288 288 294 292 293 303 309 308 312 310 308 304 294 290 291 291 288 283 284
241 244 246 250 253 254 257 259 260 263 263 265 269 272 269 269 265 269 266 266 268 268 269 275 281 282 287 289 291 290 300 308 308 309 308 305 298 296 290 286 285 290 288 287 287
239 241 243 245 247 251 252 253 256 259 261 262 263 260 262 264 264 263 264 264 270 271 273 276 278 282 291 289 291 299 302 305 307 306 305 298 292 294 292 292 289 285 285 287 287
238 241 241 243 246 248 248 250 251 255 256 257 256 256 256 259 263 264 266 269 267 267 270 277 284 287 287 291 295 297 295 302 308 305 305 297 292 293 296 298 300 298 296 293 287
238 239 241 243 244 247 248 250 251 253 252 253 253 252 252 257 258 263 263 262 261 268 273 279 283 284 287 291 293 296 303 308 304 304 300 295 292 294 297 296 296 297 295 299 299
238 238 240 242 243 246 249 247 248 251 250 247 248 250 252 255 257 259 262 259 261 268 274 278 283 286 287 291 296 300 305 301 304 305 302 302 299 307 305 304 304 301 301 300 299
238 240 241 241 244 247 245 247 246 247 247 243 246 251 251 251 256 253 252 255 258 267 268 277 282 283 293 301 302 303 301 303 305 303 301 303 307 308 306 307 307 308 305 300 297
236 239 242 243 244 246 244 244 245 245 242 243 244 249 249 251 249 250 255 258 261 270 273 277 282 291 295 299 302 304 303 302 304 302 307 300 308 307 307 308 309 308 308 308 308
237 240 242 243 245 243 242 243 243 242 239 242 245 245 244 244 245 246 261 262 264 265 274 277 284 290 295 300 302 303 303 305 303 304 307 305 306 309 308 308 313 313 310 307 306
237 239 242 242 241 242 243 240 238 238 237 235 240 243 242 243 249 250 257 262 265 270 277 278 284 293 299 304 301 295 295 300 302 302 303 305 306 306 305 307 310 312 315 315 309
236 238 241 241 241 240 239 237 234 235 233 235 239 244 245 245 248 254 259 261 264 275 275 281 288 295 301 302 297 291 295 295 299 301 304 306 304 308 310 313 312 314 314 313 315
233 234 238 240 240 238 236 236 233 233 233 233 241 243 246 248 249 254 257 261 268 273 273 283 289 293 297 295 288 287 294 291 294 297 298 298 296 300 304 307 310 312 317 317 316
231 232 234 237 237 238 235 237 231 232 232 235 239 243 246 247 249 253 256 263 269 275 280 285 291 294 296 289 284 287 292 293 296 297 293 292 297 301 303 307 308 311 314 314 314
232 234 236 237 235 238 237 236 233 231 232 234 239 242 243 246 247 253 258 262 268 274 281 285 288 293 289 282 284 286 290 293 297 293 291 292 297 302 307 311 311 312 315 315 315
Height
10877 10882 10887 10892 10897 10901 10903 10906 10908 10910 10913 10914 10915 10915 10915 10914 10913 10912 10910 10910 10906 10903 10900 10896 10894 10891 10888 10885 10883 10880 10876 10874 10871 10868 10866 10862 10859 10856 10853 10851 10850 10848 10846 10846 10844
10869 10874 10879 10885 10890 10894 10898 10899 10902 10904 10907 10908 10909 10910 10910 10908 10909 10907 10906 10903 10902 10898 10895 10893 10890 10888 10885 10882 10879 10878 10874 10870 10869 10864 10863 10860 10856 10853 10851 10847 10847 10844 10843 10842 10841
10861 10866 10871 10877 10882 10886 10890 10893 10895 10898 10900 10903 10903 10904 10904 10902 10903 10901 10901 10898 10896 10894 10891 10889 10886 10884 10880 10877 10876 10872 10870 10866 10864 10861 10859 10856 10852 10848 10846 10844 10842 10840 10837 10837 10835
10851 10856 10862 10867 10873 10878 10883 10885 10888 10891 10894 10896 10897 10899 10898 10895 10896 10895 10894 10892 10891 10888 10887 10883 10882 10879 10875 10872 10870 10868 10865 10862 10858 10856 10855 10852 10848 10845 10840 10840 10837 10835 10830 10830 10830
10842 10846 10853 10859 10864 10870 10875 10878 10880 10884 10886 10889 10890 10892 10891 10888 10890 10889 10888 10886 10884 10883 10881 10878 10876 10874 10871 10867 10865 10863 10860 10856 10853 10850 10849 10849 10842 10840 10835 10833 10831 10829 10826 10822 10822
10833 10838 10843 10848 10854 10860 10866 10869 10872 10876 10878 10882 10883 10884 10883 10881 10884 10882 10882 10880 10878 10877 10875 10872 10871 10867 10865 10862 10860 10857 10855 10851 10848 10843 10843 10844 10840 10832 10830 10827 10825 10823 10822 10816 10813
10826 10830 10834 10838 10843 10849 10856 10860 10863 10866 10870 10873 10874 10875 10874 10874 10876 10875 10875 10874 10872 10871 10869 10867 10865 10862 10859 10857 10855 10851 10850 10845 10841 10838 10834 10834 10837 10831 10824 10819 10819 10816 10813 10812 10807
10816 10821 10825 10830 10834 10838 10844 10850 10854 10858 10860 10864 10865 10865 10866 10867 10867 10868 10867 10866 10864 10862 10861 10859 10858 10856 10853 10850 10850 10845 10841 10839 10835 10830 10830 10825 10828 10825 10820 10814 10812 10808 10804 10801 10801
10805 10809 10816 10822 10827 10830 10836 10840 10843 10847 10851 10854 10856 10854 10857 10859 10858 10858 10859 10856 10856 10855 10853 10852 10851 10848 10847 10842 10841 10838 10835 10832 10829 10823 10817 10820 10814 10820 10812 10806 10802 10801 10796 10793 10789
10794 10799 10806 10811 10813 10821 10825 10827 10831 10836 10839 10844 10845 10844 10847 10850 10849 10850 10850 10847 10846 10847 10846 10844 10842 10841 10839 10836 10832 10832 10826 10823 10822 10818 10811 10809 10805 10803 10806 10799 10792 10789 10787 10783 10780
10783 10789 10795 10799 10805 10809 10815 10819 10822 10825 10831 10833 10836 10835 10836 10838 10841 10841 10840 10839 10837 10837 10835 10835 10835 10832 10832 10828 10825 10822 10820 10816 10815 10810 10804 10802 10800 10795 10790 10787 10783 10779 10776 10774 10769
10772 10777 10783 10788 10795 10799 10804 10809 10815 10819 10821 10823 10824 10825 10825 10830 10831 10830 10830 10830 10828 10827 10826 10826 10825 10823 10821 10820 10817 10814 10810 10807 10803 10798 10793 10792 10792 10788 10782 10776 10770 10768 10763 10761 10758
10761 10768 10773 10778 10784 10789 10794 10800 10804 10807 10811 10813 10816 10816 10818 10819 10819 10821 10819 10820 10820 10818 10816 10817 10816 10816 10813 10810 10808 10806 10801 10798 10792 10788 10786 10778 10779 10775 10772 10765 10757 10756 10752 10748 10745
10749 10756 10761 10766 10773 10777 10785 10790 10795 10797 10800 10801 10805 10805 10805 10808 10809 10810 10810 10810 10810 10808 10807 10808 10807 10806 10805 10802 10798 10797 10793 10789 10784 10777 10771 10763 10761 10764 10763 10757 10748 10745 10742 10734 10734
10736 10743 10749 10755 10761 10766 10774 10780 10785 10785 10787 10791 10793 10793 10794 10796 10799 10800 10800 10801 10800 10799 10798 10799 10799 10797 10796 10793 10789 10787 10784 10780 10775 10767 10761 10752 10743 10748 10749 10749 10743 10737 10728 10724 10725
10723 10731 10737 10744 10749 10756 10764 10770 10773 10775 10776 10778 10781 10783 10784 10786 10788 10789 10790 10791 10791 10790 10790 10789 10790 10787 10786 10783 10780 10777 10773 10771 10764 10759 10751 10742 10727 10726 10733 10735 10733 10730 10722 10713 10710
10710 10718 10724 10730 10738 10746 10753 10759 10763 10763 10764 10766 10770 10772 10774 10777 10778 10779 10781 10782 10783 10783 10782 10781 10779 10777 10776 10773 10770 10767 10763 10761 10755 10746 10739 10730 10722 10715 10718 10715 10713 10708 10704 10699 10693
10696 10704 10711 10717 10727 10734 10742 10747 10749 10752 10755 10754 10758 10761 10764 10766 10767 10770 10772 10771 10773 10774 10773 10770 10768 10768 10767 10764 10760 10756 10752 10748 10743 10735 10730 10720 10713 10708 10707 10706 10702 10698 10691 10686 10681
10683 10690 10697 10707 10715 10724 10732 10735 10736 10741 10741 10744 10747 10751 10753 10755 10758 10760 10761 10761 10763 10764 10764 10761 10758 10757 10755 10753 10750 10746 10742 10736 10730 10723 10716 10709 10700 10700 10697 10692 10689 10686 10682 10676 10670
10669 10677 10684 10696 10704 10712 10719 10720 10724 10727 10730 10734 10736 10739 10741 10745 10747 10749 10750 10751 10752 10754 10754 10753 10750 10747 10743 10741 10739 10736 10729 10724 10719 10714 10707 10700 10695 10692 10689 10685 10681 10677 10672 10666 10660
10655 10663 10672 10682 10692 10700 10704 10705 10712 10715 10719 10723 10726 10727 10732 10734 10737 10739 10741 10742 10744 10745 10744 10744 10740 10735 10733 10731 10728 10723 10717 10713 10707 10705 10702 10694 10689 10683 10677 10673 10671 10668 10663 10657 10651
10642 10649 10659 10668 10679 10685 10688 10691 10700 10700 10708 10711 10713 10716 10720 10723 10725 10730 10731 10732 10733 10733 10733 10733 10731 10725 10724 10721 10716 10709 10706 10704 10698 10694 10693 10685 10682 10674 10669 10663 10658 10654 10650 10646 10641
10627 10635 10644 10655 10665 10669 10671 10678 10686 10689 10696 10700 10701 10705 10708 10714 10714 10719 10722 10722 10722 10723 10723 10721 10721 10719 10713 10709 10704 10698 10697 10695 10690 10683 10684 10678 10672 10669 10662 10657 10654 10649 10643 10637 10631
10610 10623 10632 10642 10648 10652 10656 10664 10673 10677 10683 10686 10689 10694 10697 10701 10705 10708 10710 10712 10712 10713 10712 10711 10707 10711 10703 10696 10693 10687 10688 10684 10681 10673 10669 10670 10658 10657 10651 10646 10643 10640 10636 10629 10621
10597 10608 10615 10628 10631 10635 10644 10653 10659 10664 10668 10674 10677 10682 10687 10691 10695 10697 10699 10699 10702 10703 10701 10702 10697 10699 10692 10686 10683 10678 10679 10676 10674 10670 10662 10657 10658 10651 10645 10638 10632 10629 10624 10616 10609
10583 10590 10598 10609 10615 10622 10634 10639 10644 10648 10655 10662 10667 10671 10677 10679 10685 10684 10687 10690 10690 10689 10689 10690 10687 10686 10677 10675 10673 10666 10668 10664 10662 10660 10656 10651 10640 10637 10635 10630 10621 10616 10612 10604 10597
10565 10574 10584 10593 10601 10613 10619 10621 10628 10636 10644 10650 10653 10660 10664 10667 10672 10674 10676 10679 10681 10677 10676 10675 10677 10675 10664 10663 10660 10656 10655 10653 10651 10648 10642 10637 10633 10624 10618 10614 10608 10603 10597 10590 10583